Location: Days
(41.3591°N, 106.7339°W)
Time: 06:51:23
(UTC+00:00)

AIST 2D - Pass Details

Date: 07 July 2022
Orbit: 433 x 443 km, 97.0° (Epoch: 14 August)

Event Time Altitude Azimuth Distance (km) Brightness Sun altitude
Rises 04:25:38 0° 16° (NNE) 2,428 ? -15.4°
Reaches altitude 10° 04:27:42 10° 22° (NNE) 1,556 ? -15.6°
Maximum altitude 04:30:57 51° 99° (E) 560 ? -16.0°
Enters shadow 04:31:48 39° 148° (SSE) 676 ? -16.1°
